Elkins, WV

5:29 PM EST on November 16, 2019 (GMT -0500)
Elkins-Randolph County

Weather History for KEKN - September, 2019

Change the Weather History Date:

Monday, September 30, 2019

  Actual Average Record
Temperature  
Mean Temperature 74 °F 57 °F  
Max Temperature 87 °F 69 °F 90 °F (1953)
Min Temperature 62 °F 45 °F 26 °F (1899)
Degree Days  
Heating Degree Days 0 9  
Month to date heating degree days 130  
Since 1 July heating degree days 160  
Cooling Degree Days 10 0  
Month to date cooling degree days 45  
Year to date cooling degree days 471  
Growing Degree Days 24 (Base 50)    
Moisture  
Dew Point 62 °F    
Average Humidity 76    
Maximum Humidity 93    
Minimum Humidity 47    
Precipitation  
Precipitation 0.00 in 0.11 in 1.86 in (2010)
Month to date precipitation 3.63  
Year to date precipitation 36.44  
Snow  
Snow - 0.00 in 0.00 in (2016)
Month to date snowfall 0.0  
Since 1 September snowfall 0.0  
Snow Depth -    
Sea Level Pressure  
Sea Level Pressure 30.19 in    
Wind  
Wind Speed 1 mph ()    
Max Wind Speed 8 mph    
Max Gust Speed 18 mph    
Visibility 8.6 miles    
Events      
T = Trace of Precipitation, MM = Missing Value Source: Averaged Metar Reports

Daily Weather History Graph

Daily Weather History Graph

Search for Another Location

Airport or City:

Astronomy

Sep. 30, 2019 Rise Set
Actual Time 7:14 AM EDT 7:04 PM EDT
Civil Twilight 6:47 AM EDT 7:30 PM EDT
Nautical Twilight 6:16 AM EDT 8:01 PM EDT
Astronomical Twilight 5:45 AM EDT 8:32 PM EDT
Moon 9:15 AM EDT (9/30) 8:39 PM EDT (9/30)
Length of Visible Light 12h 42m
Length of Day
11h 49m
Waxing Crescent, 5% of the Moon is Illuminated
Sep 30
Waxing Crescent
Oct 5
First Quarter
Oct 13
Full
Oct 21
Last Quarter
Oct 27
New

Hourly Weather History & Observations

Time (EDT) Temp. Heat Index Dew Point Humidity Pressure Visibility Wind Dir Wind Speed Gust Speed Precip Events Conditions
12:51 AM 64.0 °F - 61.0 °F 90% 30.23 in 5.0 mi Calm Calm - N/A   Clear
1:51 AM 64.9 °F - 62.1 °F 90% 30.22 in 6.0 mi Calm Calm - N/A   Mostly Cloudy
2:51 AM 64.9 °F - 62.1 °F 90% 30.21 in 9.0 mi Calm Calm - N/A   Mostly Cloudy
3:51 AM 64.9 °F - 61.0 °F 87% 30.19 in 10.0 mi Calm Calm - N/A   Overcast
4:51 AM 64.9 °F - 60.1 °F 84% 30.19 in 10.0 mi Calm Calm - N/A   Overcast
5:51 AM 63.0 °F - 60.1 °F 90% 30.20 in 9.0 mi Calm Calm - N/A   Mostly Cloudy
6:51 AM 63.0 °F - 60.1 °F 90% 30.21 in 8.0 mi Calm Calm - N/A   Mostly Cloudy
7:51 AM 63.0 °F - 59.0 °F 87% 30.23 in 5.0 mi Calm Calm - N/A   Partly Cloudy
8:46 AM 64.4 °F - 60.8 °F 88% 30.25 in 7.0 mi Calm Calm - N/A   Scattered Clouds
8:51 AM 64.9 °F - 61.0 °F 87% 30.24 in 8.0 mi Calm Calm - N/A   Scattered Clouds
9:51 AM 71.1 °F - 63.0 °F 75% 30.24 in 10.0 mi Calm Calm - 0.00 in   Mostly Cloudy
10:51 AM 72.0 °F - 64.0 °F 76% 30.25 in 10.0 mi North 8.1 mph 18.4 mph N/A   Mostly Cloudy
11:51 AM 78.1 °F - 64.9 °F 64% 30.24 in 10.0 mi Variable 4.6 mph - N/A   Scattered Clouds
12:51 PM 79.0 °F - 64.9 °F 62% 30.22 in 10.0 mi WNW 3.5 mph - N/A   Mostly Cloudy
1:51 PM 82.0 °F 83.8 °F 64.9 °F 56% 30.17 in 10.0 mi Calm Calm - N/A   Clear
2:51 PM 84.9 °F 86.1 °F 64.0 °F 49% 30.15 in 10.0 mi Variable 4.6 mph - N/A   Scattered Clouds
3:51 PM 86.0 °F 87.3 °F 64.0 °F 48% 30.14 in 10.0 mi Variable 6.9 mph - N/A   Scattered Clouds
4:51 PM 82.9 °F 84.0 °F 63.0 °F 51% 30.13 in 10.0 mi Calm Calm - N/A   Partly Cloudy
5:51 PM 84.0 °F 84.5 °F 62.1 °F 47% 30.13 in 10.0 mi North 5.8 mph - N/A   Partly Cloudy
6:28 PM 79.0 °F - 64.9 °F 62% 30.16 in 10.0 mi Calm Calm - N/A   Partly Cloudy
6:51 PM 75.9 °F - 64.9 °F 69% 30.14 in 10.0 mi Calm Calm - N/A   Clear
7:51 PM 70.0 °F - 63.0 °F 78% 30.15 in 10.0 mi Calm Calm - N/A   Clear
8:51 PM 66.9 °F - 62.1 °F 84% 30.17 in 9.0 mi Calm Calm - N/A   Clear
9:51 PM 64.9 °F - 61.0 °F 87% 30.17 in 8.0 mi Calm Calm - N/A   Clear
10:51 PM 64.0 °F - 60.1 °F 87% 30.18 in 6.0 mi Calm Calm - N/A   Clear
11:51 PM 62.1 °F - 60.1 °F 93% 30.17 in 4.0 mi Calm Calm - N/A   Clear